STARLINK-31953, 59898

Orbit data source: Space-Track

STARLINK-31953, 59898 is a payload satellite owned by SpaceX/Seattle (US) in LEO that was launched on Tue, 28 May 2024 UTC via an FALCON 9 launch vehicle from the Air Force Eastern Test Range (AFETR). Payload-class satellites include a variety of spacecraft equipped with specific instruments for various scientific and technological missions. These include communications satellites like Starlink; space stations such as the ISS; scientific satellites like the Hubble; Earth observation satellites from companies like Planet Labs, Umbra, and HawkEye 360; GPS; miniature CubeSats for education and research; and military/defense satellites.

Loading next visibility...
Identifier
59898, 2024-100P
Orbit
LEO
Country
Flag of USUS
Related business
Manufacturer
SpaceX/Seattle
Mission
Operational Commercial Communications
Bus & Motor
STARLINK V2M, Unknown motor
Mass
730 kg wet, ~700 kg dry
Launch date (UTC)
2024-05-28 (2 years ago)
Launch vehicle
FALCON 9
Launch site
Air Force Eastern Test Range (AFETR)
Object type
Payload
Rocket body
Debris
Shape & HBR
Box + 2 Pan, 17.7 m
Radar Cross Section
33.884 m², Large (>1 m²)

Expand to show TLE details & history
Last TLE update: 2 days ago

TLE from 2 days ago
0 STARLINK-31953
1 59898U 24100P   26171.26402935  .00000461  00000-0  26276-4 0  9992
2 59898  42.9991 262.7118 0000694 252.2451 107.8325 15.27578357116882
Epoch: 2026-06-20T06:20Z
TLE epoch observation values (Epoch: 2026-06-20T06:20:12.135Z)
Latitude
-0.00003°
Longitude
-100.81994°
Altitude
482.975 km
Speed
7.626 km/s
True Right ascension
17h 30m 50s
True Declination
0° 00' 00"
Sunlit
Object was in full shadow at epoch
Visualization orbit readout
Latitude
Unknown
Longitude
Unknown
Altitude
Unknown
Speed
Unknown
Apparent Right ascension
Unknown
Apparent Declination
Unknown
Sunlit
N/A
Visualization observer readout
Local Sidereal Time
21:40:31
Azimuth
Unknown
Elevation
Unknown
Doppler factor
Unknown
Orbital elements
Apogee altitude
485.476 km
Perigee altitude
484.523 km
Semi-major axis
6,863.136 km
Eccentricity
0.00007
Inclination
42.9991°
RAAN
262.7118°
Arg. of periapsis
252.2451°
True anomaly
107.84007°
Mean anomaly
107.8325°
Eccentric anomaly
107.83629°
Mean motion
3.81733 °/min
Orbital period
94.31 mins
BSTAR
0.000026276
Loading maneuver chart data...
Computing Atmospheric mass density...
Loading historical data...
Loading historical data...
Loading historical data...
Loading historical data...
Loading historical data...
Loading historical data...
Loading historical data...

Documentation

Showing up to 5 results
|